カタログに戻る

STARLINK-30400

運用中通信VLEO
NORAD 57937·PAYLOAD·🇺🇸 United States

打ち上げ Sep 25, 2023 から Vandenberg Space Force Base

Loading…

次のパス (今後24時間)

TLE

最新Source: CelesTrak SupGP

元期: Sep 15, 2026, 01:42 UTC

1 57937C 23148C   26258.07131944 -.00051440  00000+0 -15197-2 0  2589
2 57937  53.1576 221.2000 0001305  89.6989 334.0096 15.34418968    10

AllMySatでSTARLINK-30400をリアルタイム追跡

Download on the App Store